{"data":{"norad_id":58141,"intl_designator":"2023-163A","name":"YAOGAN-39 04A","alt_names":[],"object_type":"PAYLOAD","status":"ACTIVE","operator":null,"country":"PRC","launch_date":"2023-10-23","launch_site_code":"XICLF","launch_vehicle":null,"mission":null,"orbit_class":"UNKNOWN","rcs_meters":null,"size_class":null,"mass_kg":null,"dimensions":null,"purposes":[],"wikipedia_slug":null,"has_3d_model":false,"image_url":null,"decayed_at":null,"tle_current":{"epoch":"2026-05-25T05:26:13.693632Z","epoch_age_seconds":49343,"freshness":"FRESH","line1":"1 58141U 23163A   26145.22654738  .00006895  00000+0  28647-3 0  9996","line2":"2 58141  34.9996 129.1376 0005135 175.3061 184.7702 15.23106979144075","mean_motion":15.23106979,"eccentricity":0.0005135,"inclination_deg":34.9996,"raan_deg":129.1376,"arg_perigee_deg":175.3061,"mean_anomaly_deg":184.7702,"bstar":0.00028647,"rev_number":14407,"period_min":94.543588851877,"perigee_km":492.94558465488,"apogee_km":500.00581189601,"semimajor_km":6874.6126982754,"source":"CELESTRAK","updated_at":"2026-05-25T13:38:00.543137Z"}}}